�N����,����,�~����,�C��,���x,�C��,����,���ϕ���,�ő�u�ԕ���,�ő厞����,���˗�,�I�_���x,�n�����x,�ő啗���N��,DTYPE
"20/03/09","00:10",0.0,5.6,91.8,1011.9,311.9,2.0,3.2,334.7,0.00,4.4,9.2,"00:00:48",1
"20/03/09","00:20",0.0,6.6,92.2,1011.6,325.5,3.0,5.1,317.4,0.00,5.5,9.1,"00:16:40",1
"20/03/09","00:30",0.0,7.3,92.1,1012.1,328.4,3.9,5.2,327.8,0.00,6.1,9.2,"00:27:52",1
"20/03/09","00:40",0.0,7.5,92.1,1012.1,329.8,3.4,4.8,326.4,0.00,6.3,9.0,"00:38:40",1
"20/03/09","00:50",0.0,7.3,92.0,1012.1,325.5,3.0,4.4,326.5,0.00,6.1,9.0,"00:41:36",1
"20/03/09","01:00",0.2,7.2,92.3,1012.1,327.0,3.5,5.4,329.8,0.00,6.1,8.9,"00:58:48",1
"20/03/09","01:10",0.0,7.3,92.2,1011.9,321.9,2.6,4.1,319.2,0.00,6.2,9.0,"01:04:56",1
"20/03/09","01:20",0.0,7.2,92.2,1012.1,326.0,2.7,3.6,327.0,0.00,6.1,9.2,"01:11:20",1
"20/03/09","01:30",0.0,7.3,92.3,1012.1,326.6,3.2,4.9,324.6,0.00,6.2,8.8,"01:27:52",1
"20/03/09","01:40",0.0,7.5,92.2,1012.8,326.2,3.6,5.6,332.4,0.00,6.4,9.0,"01:37:28",1
"20/03/09","01:50",0.0,7.4,92.1,1012.6,319.0,3.0,4.2,321.7,0.00,6.2,9.0,"01:44:32",1
"20/03/09","02:00",0.0,7.3,92.0,1013.0,326.5,3.4,5.5,326.7,0.00,6.1,8.8,"01:51:44",1
"20/03/09","02:10",0.0,7.0,92.1,1012.6,327.3,3.4,4.8,333.6,0.00,5.8,8.8,"02:05:52",1
"20/03/09","02:20",0.0,6.7,92.1,1012.6,330.2,2.3,3.4,318.6,0.00,5.5,8.6,"02:10:32",1
"20/03/09","02:30",0.0,6.2,92.3,1012.6,307.9,2.3,3.1,319.3,0.00,5.1,8.8,"02:21:52",1
"20/03/09","02:40",0.0,5.9,92.4,1012.6,320.7,1.2,2.0,292.6,0.00,4.8,8.8,"02:39:52",1
"20/03/09","02:50",0.0,5.6,92.6,1012.8,343.7,1.0,2.1,325.3,0.00,4.5,8.6,"02:40:56",1
"20/03/09","03:00",0.0,5.3,92.6,1012.8,182.7,0.6,1.2,266.4,0.00,4.2,8.8,"02:59:06",1
"20/03/09","03:10",0.0,5.1,92.9,1012.8,310.3,1.8,2.8,323.9,0.00,4.1,8.7,"03:05:20",1
"20/03/09","03:20",0.0,5.0,93.0,1012.8,305.9,1.3,1.9,319.0,0.00,4.0,8.7,"03:12:16",1
"20/03/09","03:30",0.0,4.9,93.2,1012.3,289.6,1.2,2.2,307.9,0.00,3.9,8.6,"03:27:20",1
"20/03/09","03:40",0.0,4.9,93.5,1012.1,329.2,1.6,2.2,313.0,0.00,4.0,8.5,"03:38:56",1
"20/03/09","03:50",0.0,4.9,93.6,1012.1,332.5,2.0,3.4,332.4,0.00,4.0,8.5,"03:44:08",1
"20/03/09","04:00",0.0,4.5,93.9,1011.2,206.6,0.7,1.7,312.9,0.00,3.6,8.5,"03:50:32",1
"20/03/09","04:10",0.0,4.4,94.0,1011.4,292.7,1.5,2.5,303.1,0.00,3.6,8.4,"04:09:54",1
"20/03/09","04:20",0.0,4.2,94.2,1011.4,319.3,1.8,2.7,309.1,0.00,3.4,8.4,"04:10:08",1
"20/03/09","04:30",0.0,4.2,94.3,1011.2,328.3,1.5,3.2,324.8,0.00,3.4,8.3,"04:27:14",1
"20/03/09","04:40",0.0,3.8,94.6,1011.2,313.0,1.8,2.6,316.9,0.00,3.1,8.3,"04:31:44",1
"20/03/09","04:50",0.0,4.4,94.9,1011.2,320.3,2.3,4.0,338.9,0.00,3.7,8.0,"04:48:16",1
"20/03/09","05:00",0.0,5.3,94.8,1011.2,332.0,1.7,3.3,327.3,0.00,4.6,8.2,"04:59:52",1
"20/03/09","05:10",0.0,5.4,94.8,1011.2,323.5,2.1,2.8,333.6,0.00,4.7,8.2,"05:08:24",1
"20/03/09","05:20",0.0,5.4,94.9,1011.6,317.1,2.3,3.9,330.6,0.00,4.7,8.1,"05:15:04",1
"20/03/09","05:30",0.0,4.9,95.0,1011.4,304.7,0.8,2.0,319.7,0.00,4.2,8.0,"05:29:44",1
"20/03/09","05:40",0.0,4.5,95.3,1011.9,319.5,1.6,2.2,315.1,0.00,3.9,8.1,"05:30:56",1
"20/03/09","05:50",0.0,4.0,95.4,1011.9,310.1,1.6,2.2,316.2,0.00,3.4,7.9,"05:40:24",1
"20/03/09","06:00",0.0,3.9,95.8,1011.6,305.9,1.6,3.2,317.4,0.00,3.3,8.1,"05:55:58",1
"20/03/09","06:10",0.0,4.6,95.7,1011.9,314.7,1.6,2.7,0.3,0.00,4.0,7.8,"06:01:38",1
"20/03/09","06:20",0.0,4.6,95.8,1012.3,292.8,1.0,2.5,313.3,0.00,4.0,7.9,"06:11:22",1
"20/03/09","06:30",0.0,4.3,95.8,1012.3,311.1,0.5,1.8,316.2,0.00,3.7,7.9,"06:28:58",1
"20/03/09","06:40",0.0,4.0,96.0,1012.6,315.9,1.8,2.4,323.4,0.00,3.5,7.8,"06:38:10",1
"20/03/09","06:50",0.0,3.8,96.1,1012.6,326.7,1.8,2.4,330.6,0.00,3.3,7.7,"06:47:08",1
"20/03/09","07:00",0.0,3.5,96.4,1012.3,305.2,1.3,2.0,326.2,0.00,3.0,7.9,"06:55:18",1
"20/03/09","07:10",0.0,3.4,96.5,1012.1,307.3,1.7,2.2,318.3,0.00,2.9,7.8,"07:05:00",1
"20/03/09","07:20",0.0,3.7,96.6,1012.6,316.3,1.6,2.1,314.0,0.00,3.3,7.7,"07:14:40",1
"20/03/09","07:30",0.0,3.8,96.7,1012.8,286.7,1.2,1.7,270.5,0.00,3.4,7.6,"07:29:44",1
"20/03/09","07:40",0.0,4.3,96.8,1012.8,304.5,1.7,2.2,321.8,0.00,3.9,7.7,"07:36:32",1
"20/03/09","07:50",0.0,4.9,96.7,1013.0,309.5,1.8,2.9,325.5,0.01,4.5,7.9,"07:44:24",1
"20/03/09","08:00",0.0,5.4,96.7,1012.8,171.6,0.5,1.0,158.6,0.02,5.0,7.6,"07:51:04",1
"20/03/09","08:10",0.0,6.0,96.5,1013.0,233.3,1.0,1.4,233.5,0.03,5.5,7.7,"08:03:28",1
"20/03/09","08:20",0.0,6.5,96.4,1013.3,238.8,1.1,1.4,225.6,0.04,6.0,7.7,"08:13:14",1
"20/03/09","08:30",0.0,7.4,96.0,1013.8,258.4,0.7,1.1,293.3,0.06,6.8,7.7,"08:25:44",1
"20/03/09","08:40",0.0,8.1,95.4,1013.5,279.6,0.7,1.6,325.1,0.09,7.4,7.9,"08:34:08",1
"20/03/09","08:50",0.0,8.2,95.0,1013.8,264.6,0.8,1.4,301.2,0.12,7.5,8.1,"08:43:20",1
"20/03/09","09:00",0.0,8.3,95.1,1013.8,228.8,0.7,1.2,214.3,0.16,7.6,8.1,"08:55:20",1
"20/03/09","09:10",0.0,8.9,95.1,1014.0,175.5,0.7,1.9,106.1,0.20,8.2,8.4,"09:05:20",1
"20/03/09","09:20",0.0,9.0,94.2,1014.2,238.8,0.7,1.6,194.5,0.23,8.2,8.4,"09:17:52",1
"20/03/09","09:30",0.0,9.6,94.2,1014.0,244.9,1.0,1.9,144.9,0.26,8.8,8.6,"09:25:44",1
"20/03/09","09:40",0.0,9.6,93.4,1013.8,228.0,1.2,2.1,168.3,0.29,8.6,8.7,"09:36:58",1
"20/03/09","09:50",0.0,9.9,91.9,1013.8,195.5,0.8,1.8,280.2,0.32,8.7,9.0,"09:40:16",1
"20/03/09","10:00",0.0,10.5,91.2,1014.0,257.0,1.0,2.0,249.3,0.34,9.2,9.1,"09:51:44",1
"20/03/09","10:10",0.0,10.6,89.7,1014.0,135.1,1.0,2.0,159.6,0.37,9.0,9.5,"10:07:12",1
"20/03/09","10:20",0.0,11.1,88.2,1014.0,186.1,0.8,2.7,136.4,0.39,9.3,9.8,"10:16:08",1
"20/03/09","10:30",0.0,11.3,86.1,1014.2,140.1,1.3,2.8,126.8,0.41,9.1,9.8,"10:27:36",1
"20/03/09","10:40",0.0,11.9,84.1,1013.8,198.9,1.0,2.7,129.2,0.44,9.3,10.0,"10:30:32",1
"20/03/09","10:50",0.0,12.5,81.0,1014.2,193.2,1.2,2.8,214.2,0.45,9.4,10.3,"10:48:40",1
"20/03/09","11:00",0.0,12.8,79.5,1013.8,188.3,1.2,2.7,174.9,0.47,9.4,10.4,"10:57:28",1
"20/03/09","11:10",0.0,13.1,77.8,1013.8,88.7,1.1,3.2,110.6,0.49,9.4,10.9,"11:07:04",1
"20/03/09","11:20",0.0,13.6,76.2,1013.0,187.1,1.1,3.4,109.3,0.51,9.5,11.1,"11:19:20",1
"20/03/09","11:30",0.0,14.0,74.5,1013.0,201.8,0.8,2.5,141.4,0.52,9.6,11.4,"11:23:44",1
"20/03/09","11:40",0.0,14.3,71.5,1013.3,169.1,0.8,1.9,140.7,0.53,9.3,11.6,"11:33:20",1
"20/03/09","11:50",0.0,14.8,69.0,1012.3,146.8,1.0,1.9,115.1,0.55,9.2,11.9,"11:48:16",1
"20/03/09","12:00",0.0,15.2,66.9,1012.1,203.1,1.1,2.2,200.9,0.56,9.1,12.0,"11:51:20",1
"20/03/09","12:10",0.0,15.6,64.3,1012.1,209.0,1.2,3.4,201.9,0.57,8.9,12.4,"12:09:12",1
"20/03/09","12:20",0.0,15.9,63.8,1012.1,311.8,1.1,2.6,211.2,0.57,9.1,12.7,"12:10:48",1
"20/03/09","12:30",0.0,16.6,63.3,1011.9,245.4,1.1,2.2,233.3,0.58,9.6,12.9,"12:25:04",1
"20/03/09","12:40",0.0,17.0,61.3,1011.4,231.2,0.6,2.0,336.0,0.57,9.5,13.0,"12:37:52",1
"20/03/09","12:50",0.0,17.1,58.3,1011.2,155.8,1.2,2.6,339.5,0.58,8.9,13.4,"12:41:36",1
"20/03/09","13:00",0.0,17.1,55.1,1010.9,151.2,0.8,2.4,123.2,0.56,8.1,13.6,"12:58:08",1
"20/03/09","13:10",0.0,17.9,52.7,1010.4,265.7,0.6,1.8,348.8,0.55,8.2,13.8,"13:09:44",1
"20/03/09","13:20",0.0,18.3,54.1,1010.4,236.8,1.5,3.6,233.9,0.57,8.9,13.8,"13:19:04",1
"20/03/09","13:30",0.0,18.1,55.1,1009.7,212.3,1.8,4.0,227.5,0.56,9.0,14.5,"13:28:08",1
"20/03/09","13:40",0.0,18.3,54.5,1009.7,223.7,1.6,3.1,203.0,0.55,9.0,14.3,"13:38:08",1
"20/03/09","13:50",0.0,18.4,53.3,1009.5,179.0,1.8,3.6,130.0,0.57,8.8,14.5,"13:43:20",1
"20/03/09","14:00",0.0,18.8,52.7,1009.3,223.4,1.2,2.6,252.5,0.44,9.0,14.9,"13:56:08",1
"20/03/09","14:10",0.0,19.4,49.8,1009.0,220.7,1.0,2.1,220.0,0.56,8.7,14.9,"14:09:52",1
"20/03/09","14:20",0.0,19.5,47.7,1009.0,243.5,1.2,2.2,232.1,0.47,8.2,15.0,"14:14:00",1
"20/03/09","14:30",0.0,19.9,46.7,1008.6,312.9,1.1,2.9,341.4,0.47,8.2,15.0,"14:27:44",1
"20/03/09","14:40",0.0,20.6,44.8,1008.1,305.8,0.7,1.9,311.3,0.51,8.2,15.4,"14:37:20",1
"20/03/09","14:50",0.0,21.2,43.1,1008.3,8.0,0.5,1.7,14.3,0.48,8.2,15.5,"14:48:32",1
"20/03/09","15:00",0.0,21.1,41.6,1008.1,204.3,0.8,1.8,209.4,0.39,7.6,15.6,"14:53:44",1
"20/03/09","15:10",0.0,20.8,39.5,1008.1,199.1,1.3,2.5,234.3,0.41,6.6,15.5,"15:06:56",1
"20/03/09","15:20",0.0,20.5,38.4,1008.1,210.9,1.2,3.3,200.0,0.31,5.9,15.6,"15:14:32",1
"20/03/09","15:30",0.0,20.3,38.1,1007.8,202.1,1.5,2.8,227.4,0.27,5.6,15.7,"15:21:28",1
"20/03/09","15:40",0.0,20.4,38.1,1007.6,187.9,1.3,2.7,233.9,0.28,5.7,15.6,"15:38:40",1
"20/03/09","15:50",0.0,20.1,37.2,1007.8,201.9,1.3,2.6,206.4,0.22,5.1,15.9,"15:47:44",1
"20/03/09","16:00",0.0,20.2,38.5,1007.6,236.6,1.1,2.4,226.6,0.20,5.7,15.7,"15:55:36",1
"20/03/09","16:10",0.0,20.0,40.2,1007.8,216.5,1.2,3.1,194.7,0.17,6.1,15.7,"16:09:12",1
"20/03/09","16:20",0.0,20.0,39.1,1008.1,225.4,1.2,2.2,199.5,0.17,5.7,15.7,"16:12:32",1
"20/03/09","16:30",0.0,20.1,39.9,1008.3,195.2,1.1,2.5,189.6,0.16,6.1,15.6,"16:28:32",1
"20/03/09","16:40",0.0,20.0,42.0,1007.8,190.3,1.2,2.2,114.8,0.13,6.8,15.6,"16:39:36",1
"20/03/09","16:50",0.0,19.7,44.6,1008.3,192.3,1.5,3.4,144.1,0.12,7.4,15.4,"16:41:12",1
"20/03/09","17:00",0.0,19.4,45.4,1008.6,222.7,2.1,4.0,224.3,0.11,7.3,15.4,"16:53:52",1
"20/03/09","17:10",0.0,19.2,46.1,1008.3,228.5,1.6,2.9,232.0,0.08,7.4,15.2,"17:03:12",1
"20/03/09","17:20",0.0,19.0,47.3,1008.3,223.9,1.5,2.1,230.9,0.07,7.6,15.2,"17:11:04",1
"20/03/09","17:30",0.0,18.9,48.2,1008.1,217.5,1.1,2.1,182.9,0.06,7.8,15.2,"17:29:52",1
"20/03/09","17:40",0.0,18.7,48.0,1008.6,187.9,1.1,2.1,193.3,0.05,7.5,14.9,"17:31:04",1
"20/03/09","17:50",0.0,18.4,49.3,1008.8,208.5,0.7,1.6,186.8,0.03,7.6,14.8,"17:40:08",1
"20/03/09","18:00",0.0,18.4,51.3,1008.8,291.5,1.0,1.9,336.3,0.01,8.2,14.7,"17:59:28",1
"20/03/09","18:10",0.0,17.6,57.9,1008.8,300.4,1.5,1.9,306.5,0.00,9.3,14.8,"18:01:14",1
"20/03/09","18:20",0.0,16.7,61.5,1009.0,296.6,1.3,2.2,332.2,0.00,9.3,14.6,"18:18:18",1
"20/03/09","18:30",0.0,16.1,63.6,1008.8,309.5,1.5,2.4,322.8,0.00,9.2,14.3,"18:24:48",1
"20/03/09","18:40",0.0,15.7,65.0,1008.8,312.9,1.2,2.0,337.2,0.00,9.2,14.4,"18:34:18",1
"20/03/09","18:50",0.0,15.3,66.4,1008.6,309.0,1.5,3.3,322.7,0.00,9.1,14.1,"18:45:46",1
"20/03/09","19:00",0.0,14.8,67.9,1009.0,330.5,2.0,2.9,337.0,0.00,9.0,14.0,"18:52:16",1
"20/03/09","19:10",0.0,14.5,69.0,1009.0,320.6,1.7,2.9,342.2,0.00,8.9,13.9,"19:06:00",1
"20/03/09","19:20",0.0,14.3,69.7,1009.3,321.3,1.8,2.9,333.3,0.00,8.9,14.0,"19:18:08",1
"20/03/09","19:30",0.0,14.1,70.2,1008.6,310.9,1.7,2.7,323.2,0.00,8.8,13.7,"19:22:16",1
"20/03/09","19:40",0.0,14.0,70.8,1009.0,316.8,1.7,2.6,325.9,0.00,8.8,13.7,"19:36:08",1
"20/03/09","19:50",0.0,13.8,71.2,1008.6,319.6,1.3,2.1,332.5,0.00,8.7,13.5,"19:43:20",1
"20/03/09","20:00",0.0,13.6,71.6,1008.3,299.9,1.0,1.7,303.5,0.00,8.6,13.5,"19:54:16",1
"20/03/09","20:10",0.0,13.4,72.3,1008.8,294.3,1.5,2.7,308.2,0.00,8.6,13.4,"20:08:40",1
"20/03/09","20:20",0.0,13.3,73.0,1009.0,303.2,1.3,1.9,303.5,0.00,8.6,13.2,"20:15:04",1
"20/03/09","20:30",0.0,13.2,73.4,1009.3,284.0,1.1,2.5,324.7,0.00,8.6,13.2,"20:28:16",1
"20/03/09","20:40",0.0,13.2,73.7,1009.3,322.0,2.0,3.1,330.6,0.00,8.7,13.1,"20:32:16",1
"20/03/09","20:50",0.0,12.7,74.1,1009.5,320.5,1.0,2.0,341.3,0.00,8.2,12.9,"20:40:16",1
"20/03/09","21:00",0.0,12.6,74.9,1009.3,273.9,1.0,1.4,262.1,0.00,8.3,12.8,"20:57:30",1
"20/03/09","21:10",0.0,12.5,75.4,1009.0,298.1,1.2,1.7,307.7,0.00,8.3,12.8,"21:02:14",1
"20/03/09","21:20",0.0,12.4,76.3,1009.0,319.4,1.1,2.0,326.0,0.00,8.4,12.8,"21:19:42",1
"20/03/09","21:30",0.0,12.1,77.4,1009.0,316.0,1.5,1.9,310.6,0.00,8.3,12.6,"21:20:32",1
"20/03/09","21:40",0.0,12.0,78.6,1008.8,297.3,1.3,1.9,335.7,0.00,8.4,12.5,"21:31:52",1
"20/03/09","21:50",0.0,12.1,79.2,1008.8,306.9,1.6,2.9,319.3,0.00,8.6,12.4,"21:49:00",1
"20/03/09","22:00",0.0,12.1,79.5,1009.3,314.8,1.3,1.9,309.8,0.00,8.7,12.6,"21:50:08",1
"20/03/09","22:10",0.0,11.9,79.9,1009.0,308.6,1.3,1.8,321.4,0.00,8.6,12.3,"22:08:04",1
"20/03/09","22:20",0.0,12.0,80.1,1009.0,318.9,1.5,2.0,333.4,0.00,8.7,12.4,"22:18:30",1
"20/03/09","22:30",0.0,11.8,80.4,1008.6,323.9,1.1,1.6,331.8,0.00,8.6,12.3,"22:24:46",1
"20/03/09","22:40",0.0,11.8,81.0,1008.8,331.3,1.3,2.0,343.8,0.00,8.7,12.2,"22:33:46",1
"20/03/09","22:50",0.0,11.6,81.5,1009.0,315.1,1.5,2.1,335.0,0.00,8.6,12.2,"22:44:32",1
"20/03/09","23:00",0.0,11.5,82.1,1009.0,276.9,1.3,1.8,261.4,0.00,8.6,12.1,"22:55:42",1
"20/03/09","23:10",0.0,11.7,82.3,1009.0,333.7,1.5,2.7,335.2,0.00,8.8,12.2,"23:02:42",1
"20/03/09","23:20",0.0,11.6,82.7,1008.6,303.2,1.3,1.9,267.1,0.00,8.8,12.2,"23:10:32",1
"20/03/09","23:30",0.0,11.6,82.9,1008.6,315.3,1.1,1.9,338.2,0.00,8.8,12.2,"23:21:02",1
"20/03/09","23:40",0.0,11.5,83.2,1008.3,284.0,1.5,2.2,303.1,0.00,8.8,11.8,"23:33:38",1
"20/03/09","23:50",0.0,11.6,83.3,1008.3,319.3,1.5,2.6,357.3,0.00,8.9,11.9,"23:48:30",1
"20/03/09","24:00",0.0,11.5,83.3,1008.6,292.2,1.1,1.9,322.6,0.00,8.8,12.0,"23:58:58",1
